Regional Weather Roundup
Issued by NWS

Current Version | Previous Version | Text Only | Print | Product List | Glossary On
Versions: 1 2 3 4 5 6 7 8 9 10 11 12 13 14 15 16 17 18 19 20 21 22 23 24 25 26 27
000
ASUS45 KBOU 281207
RWRCO

WEATHER ROUNDUP FOR COLORADO
NATIONAL WEATHER SERVICE DENVER/BOULDER CO
600 AM MDT TUE MAR 28 2017

NOTE: "FAIR" INDICATES FEW OR NO CLOUDS BELOW 12000 FEET WITH NO
SIGNIFICANT WEATHER AND/OR OBSTRUCTIONS TO VISIBILITY.

COZ001>005-013-030-031-281300-
...NORTHWEST COLORADO...

CITY           SKY/WX    TMP DP  RH WIND       PRES   REMARKS
CRAIG          LGT RAIN  36  33  89 SW6       29.88R
HAYDEN         CLOUDY    34  30  86 W6        29.87R WCI  29
MEEKER         CLOUDY    37  36  96 SW6       29.87R
MOUNT WERNER   NOT AVBL
STEAMBOAT SPGS CLOUDY    34  33  94 CALM      29.86R
WALDEN         NOT AVBL
$$

COZ006>008-011-281300-
...WEST CENTRAL VALLEYS...

CITY           SKY/WX    TMP DP  RH WIND       PRES   REMARKS
GRAND JUNCTION CLOUDY    43  42  97 CALM      29.85R
MONTROSE       CLOUDY    38  38 100 CALM      29.88R
EAGLE          LGT RAIN  33  31  92 CALM      29.88S
RIFLE          CLOUDY    43  39  86 CALM      29.85S
DELTA          CLOUDY    42  40  93 NE3       29.86S
NUCLA          CLOUDY    37  36  93 CALM      29.89S
$$

COZ017>023-064>068-281300-
...SOUTHWEST COLORADO...

CITY           SKY/WX    TMP DP  RH WIND       PRES   REMARKS
DURANGO        MOCLDY    33  33 100 E6        29.85S WCI  28
CORTEZ         CLOUDY    38  36  92 E5        29.85F
PAGOSA SPRINGS MOCLDY    34  34 100 CALM      29.87S
TELLURIDE      FOG       30  30 100 CALM      29.89S VSB 1/2
WOLF CREEK PAS FOG       21  21 100 SW8       29.95R VSB 1/4 WCI  12
$$

COZ009-010-012-014-032>034-037-058>063-281300-
...CENTRAL COLORADO...

CITY           SKY/WX    TMP DP  RH WIND       PRES   REMARKS
ASPEN          LGT SNOW  32  32 100 CALM      29.85S FOG
BUENA VISTA    FAIR      34  30  84 S3        29.84S
COPPER MTN     SNOW      28  23  80 MISG      29.92S VSB 1/4
BERTHOUD PASS  FAIR      19   9  63 S7        29.92S WCI  10
COTTONWOOD PAS FAIR      34  28  80 E3        29.88R
GUNNISON       LGT SNOW  33  32  96 SW8       29.87R FOG     WCI  26
KREMMLING      FLURRIES  37  36  93 CALM      29.86S
LEADVILLE      CLOUDY    29  28  96 SW3       29.86S FOG
MONARCH PASS   FOG       23  23 100 SW17      30.01R VSB 1/2 WCI   9
SALIDA         FAIR      37  32  82 W5        29.91R
SUNLIGHT       CLOUDY    25  23  93 CALM      29.93S
WILKERSON PASS FOG       28  27  93 CALM      29.94R VSB 1/2
$$

COZ069>075-281300-
...SAN LUIS VALLEY/SANGRE DE CRISTO MOUNTAINS...

CITY           SKY/WX    TMP DP  RH WIND       PRES   REMARKS
ALAMOSA        FAIR      29  28  96 N6        29.85R WCI  23
LA VETA PASS   NOT AVBL
SAGUACHE       CLOUDY    36  32  87 CALM      29.86S
$$

COZ035-036-038>040-281300-
...NORTHERN COLORADO FRONT RANGE...

CITY           SKY/WX    TMP DP  RH WIND       PRES   REMARKS
DENVER INTL AP CLOUDY    44  40  85 N7        29.81S
DMNS CITY PARK   N/A     45  40  81 N3G12     29.83R
AURORA         CLOUDY    43  43 100 NW6       29.83R
FRONT RANGE AP CLOUDY    45  43  93 N6        29.83R
ERIE MUNI ARPT LGT RAIN  45  42  88 N5        29.83R
BOULDER MUN AP LGT RAIN  45  41  87 N9        29.83R
CENTENNIAL     CLOUDY    44  40  85 N9        29.82R
BROOMFIELD     FLURRIES  45  41  87 N10       29.83S
FORT COLLINS   FAIR      44  40  85 N15       29.83S
LONGMONT       DRIZZLE   47  42  82 N8        29.85R
$$

COZ041-046-047-076>085-087-088-281300-
...PIKES PEAK/PALMER DIVIDE AND SOUTHERN FOOTHILLS...

CITY           SKY/WX    TMP DP  RH WIND       PRES   REMARKS
COLO. SPRINGS  FAIR      37  32  82 NE9       29.83R
A. F. ACADEMY  CLOUDY    40  34  78 S2        29.82R
SCHRIEVER AFB  FAIR      35  34  93 NE7       29.83R WCI  30
ELLICOTT       NOT AVBL
FALCON         FAIR      33  32  96 N3        29.84S
FORT CARSON    FAIR      36  33  88 N5        29.82R
LIMON          CLOUDY    40  40 100 SE13      29.84R
MONUMENT HILL  CLOUDY    36  32  87 S8        29.85S
TRINIDAD       FAIR      44  37  76 NW5       29.79S
$$

COZ042>045-048>051-090-091-281300-
...NORTHEAST COLORADO...

CITY           SKY/WX    TMP DP  RH WIND       PRES   REMARKS
GREELEY ARPT   CLOUDY    44  41  89 N8        29.82S
AKRON          LGT RAIN  45  40  82 SE15      29.85R
BURLINGTON     CLOUDY    44  42  93 SE25      29.84F
WRAY           DRIZZLE   45  45 100 E9        29.89R
STERLING       CLOUDY    46  41  81 SE10      29.85S
HOLYOKE        LGT RAIN  46  43  87 E12       29.90S
FORT MORGAN    CLOUDY    45  37  72 SE10      29.84R
$$

COZ086-089-092>099-281300-
...SOUTHEAST COLORADO...

CITY           SKY/WX    TMP DP  RH WIND       PRES   REMARKS
PUEBLO         FAIR      40  36  86 NE7       29.78R
LA JUNTA       FAIR      49  39  68 SE15      29.77R
LAMAR          MOCLDY    48  41  76 SE22G30   29.80F
SPRINGFIELD      N/A     45  42  89 SE18      29.84S
$$




USA.gov is the U.S. government's official web portal to all federal, state and local government web resources and services.